Regional Weather Roundup
Issued by NWS

Home | Current Version | Previous Version | Graphics & Text | Print | Product List | Glossary On
Versions: 1 2 3 4 5 6 7 8 9 10 11 12 13 14 15 16 17 18 19 20 21 22 23 24 25 26 27 28 29 30 31 32 33 34 35 36 37 38 39 40 41 42 43 44 45 46 47 48 49 50
000
ASUS45 KCYS 230410
RWRWY

WYOMING REGIONAL WEATHER ROUNDUP
NATIONAL WEATHER SERVICE CHEYENNE WY
1000 PM MDT FRI JUL 22 2016

NOTE:  "FAIR" INDICATES FEW OR NO CLOUDS BELOW 12,000 FEET
WITH NO SIGNIFICANT WEATHER AND/OR OBSTRUCTIONS TO VISIBILITY.

WYZ001-230500-
YELLOWSTONE NATIONAL PARK

CITY           SKY/WX    TMP DP  RH WIND       PRES   REMARKS
LK YELLOWSTONE   N/A     59  25  27 CALM      30.30R
W YELLOWSTONE  NOT AVBL

$$
WYZ002>013-054>058-071-098>099-230500-
NORTHERN WYOMING

CITY           SKY/WX    TMP DP  RH WIND       PRES   REMARKS
JACKSON        FAIR      72  21  15 S14       30.21R
CODY           FAIR      82  30  15 SW8       30.02R
GREYBULL       FAIR      82  42  24 S7        29.90R
WORLAND        FAIR      75  42  30 CALM      29.94S
SHERIDAN       FAIR      78  47  33 SW7       29.88S
BUFFALO        FAIR      77  43  29 S10       30.00R
GILLETTE       FAIR      79  57  46 S14       29.96F
HULETT         DRIZZLE   81  48  32 S13       29.98R
NEWCASTLE      FAIR      77  48  36 SE17      30.00R

$$
WYZ014>020-022>026-101>103-230500-
CENTRAL WYOMING

CITY           SKY/WX    TMP DP  RH WIND       PRES   REMARKS
BIG PINEY      FAIR      67  43  41 NE10      30.26R
PINEDALE       FAIR      59  52  77 CALM      30.27R
DUBOIS         FAIR      66  34  30 W6        30.24R
LANDER         FAIR      75  43  31 SW14      30.11R
RIVERTON       FAIR      77  45  32 W10       30.10R
CASPER         FAIR      73  44  35 S6        30.08R
DOUGLAS          N/A    N/A N/A N/A MISG      30.07R

$$
WYZ021-027>030-104>119-230500-
SOUTHERN WYOMING

CITY           SKY/WX    TMP DP  RH WIND       PRES   REMARKS
EVANSTON       FAIR      69  27  20 W12       30.27R
KEMMERER         N/A    N/A N/A N/A W10       30.28R
FORT BRIDGER   FAIR      73  34  23 SW12      30.29R
ROCK SPRINGS   FAIR      73  39  29 SW15      30.23R
DIXON          FAIR      67  48  51 E10       30.29S
RAWLINS        FAIR      74  41  30 SW12      30.25R
SARATOGA       FAIR      72  39  30 SW14      30.28R
LARAMIE        FAIR      71  43  36 SW17      30.28R
CHEYENNE       FAIR      76  47  35 SW12      30.17R
TORRINGTON     FAIR      70  60  70 SE14G25   30.01R
PINE BLUFFS    FAIR      72  61  68 E15G21    30.10R

$$



USA.gov is the U.S. government's official web portal to all federal, state and local government web resources and services.